Grand Junction, CO

10:51 PM MST on December 09, 2019 (GMT -0700)
Walker

Weather History for KGJT - November, 2019

Change the Weather History Date:

Saturday, November 16, 2019

  Actual Average Record
Temperature  
Mean Temperature 44 °F 39 °F  
Max Temperature 60 °F 50 °F 69 °F (2016)
Min Temperature 28 °F 27 °F 8 °F (1955)
Degree Days  
Heating Degree Days 21 26  
Month to date heating degree days 376 360  
Since 1 July heating degree days 980 808  
Cooling Degree Days 0 0  
Month to date cooling degree days 0 0  
Year to date cooling degree days 1287 1125  
Moisture  
Dew Point 16 °F    
Average Humidity 32    
Maximum Humidity 45    
Minimum Humidity 19    
Precipitation  
Precipitation 0.00 in 0.02 in 0.41 in (1964)
Month to date precipitation 0.00 0.42  
Year to date precipitation 7.14 8.52  
Snow  
Snow 0.00 in 0.10 in 6.00 in (1964)
Month to date snowfall 0.0 0.8  
Since 1 July snowfall 0.2 1.2  
Since 1 September snowfall 0.2 1.2  
Snow Depth 0.00 in    
Sea Level Pressure  
Sea Level Pressure 30.13 in    
Wind  
Wind Speed 5 mph (NE)    
Max Wind Speed 15 mph    
Max Gust Speed 19 mph    
Visibility 10 miles    
Events      
T = Trace of Precipitation, MM = Missing Value Source: NWS Daily Summary

Daily Weather History Graph

Daily Weather History Graph

Search for Another Location

Airport or City:

Astronomy

Nov. 16, 2019 Rise Set
Actual Time 6:58 AM MST 4:59 PM MST
Civil Twilight 6:29 AM MST 5:27 PM MST
Nautical Twilight 5:57 AM MST 6:00 PM MST
Astronomical Twilight 5:25 AM MST 6:31 PM MST
Moon 8:35 PM MST (11/16) 10:54 AM MST (11/16)
Length of Visible Light 10h 58m
Length of Day
10h 00m
Waning Gibbous, 82% of the Moon is Illuminated
Nov 16
Waning Gibbous
Nov 19
Last Quarter
Nov 26
New
Dec 3
First Quarter
Dec 11
Full

Hourly Weather History & Observations

Time (MST) Temp. Windchill Dew Point Humidity Pressure Visibility Wind Dir Wind Speed Gust Speed Precip Events Conditions
12:53 AM 34.0 °F 31.0 °F 12.9 °F 42% 30.13 in 10.0 mi East 3.5 mph - N/A   Clear
1:53 AM 36.0 °F 33.3 °F 12.9 °F 39% 30.12 in 10.0 mi East 3.5 mph - N/A   Clear
2:53 AM 37.9 °F 32.1 °F 16.0 °F 41% 30.10 in 10.0 mi East 8.1 mph - N/A   Clear
3:53 AM 37.0 °F 33.3 °F 15.1 °F 41% 30.09 in 10.0 mi ESE 4.6 mph - N/A   Clear
4:53 AM 36.0 °F 30.3 °F 16.0 °F 44% 30.12 in 10.0 mi ENE 6.9 mph - N/A   Clear
5:53 AM 36.0 °F 33.3 °F 15.1 °F 43% 30.16 in 10.0 mi ESE 3.5 mph - N/A   Clear
6:53 AM 32.0 °F 28.7 °F 14.0 °F 48% 30.21 in 10.0 mi East 3.5 mph - N/A   Clear
7:53 AM 32.0 °F 27.5 °F 14.0 °F 48% 30.21 in 10.0 mi East 4.6 mph - N/A   Clear
8:53 AM 41.0 °F 39.0 °F 17.1 °F 38% 30.19 in 10.0 mi SSE 3.5 mph - N/A   Clear
9:53 AM 46.0 °F - 18.0 °F 33% 30.20 in 10.0 mi Calm Calm - N/A   Clear
10:53 AM 51.1 °F - 18.0 °F 27% 30.16 in 10.0 mi Calm Calm - N/A   Clear
11:53 AM 55.0 °F - 19.0 °F 24% 30.11 in 10.0 mi Calm Calm - N/A   Clear
12:53 PM 57.0 °F - 18.0 °F 22% 30.07 in 10.0 mi NW 8.1 mph - N/A   Clear
1:53 PM 59.0 °F - 18.0 °F 20% 30.03 in 10.0 mi NW 8.1 mph - N/A   Clear
3:53 PM 59.0 °F - 17.1 °F 20% 30.04 in 10.0 mi NW 12.7 mph - N/A   Clear
4:53 PM 55.0 °F - 16.0 °F 22% 30.06 in 10.0 mi North 8.1 mph - N/A   Clear
5:53 PM 50.0 °F - 15.1 °F 25% 30.11 in 10.0 mi North 6.9 mph - N/A   Clear
6:53 PM 46.0 °F 43.9 °F 15.1 °F 29% 30.15 in 10.0 mi NNW 4.6 mph - N/A   Clear
7:53 PM 39.9 °F - 12.9 °F 33% 30.19 in 10.0 mi Calm Calm - N/A   Clear
9:53 PM 46.0 °F - 17.1 °F 31% 30.17 in 10.0 mi North - - N/A   Clear
10:53 PM 51.1 °F - 19.0 °F 28% 30.16 in 10.0 mi Variable 3.5 mph - N/A   Clear
11:53 PM 43.0 °F 41.3 °F 17.1 °F 35% 30.18 in 10.0 mi NNE 3.5 mph - N/A   Clear